TimeMDT,TemperatureF,Dew PointF,Humidity,Sea Level PressureIn,VisibilityMPH,Wind Direction,Wind SpeedMPH,Gust SpeedMPH,PrecipitationIn,Events,Conditions,WindDirDegrees,DateUTC
12:48 AM,59.0,50.0,72,30.20,-9999.0,East,3.5,-,N/A,,Unknown,100,2013-07-14 06:48:00
1:48 AM,55.9,48.9,77,30.20,-9999.0,Calm,Calm,-,N/A,,Unknown,0,2013-07-14 07:48:00
2:48 AM,52.0,48.0,86,30.22,-9999.0,Calm,Calm,-,N/A,,Unknown,0,2013-07-14 08:48:00
3:48 AM,50.0,46.9,89,30.23,-9999.0,Calm,Calm,-,N/A,,Unknown,0,2013-07-14 09:48:00
4:48 AM,50.0,46.9,89,30.24,-9999.0,Calm,Calm,-,N/A,,Unknown,0,2013-07-14 10:48:00
5:48 AM,50.0,48.0,93,30.24,-9999.0,Calm,Calm,-,N/A,,Unknown,0,2013-07-14 11:48:00
6:48 AM,54.0,50.0,86,30.25,-9999.0,East,3.5,-,N/A,,Unknown,90,2013-07-14 12:48:00
7:48 AM,59.0,51.1,75,30.25,-9999.0,ENE,5.8,-,N/A,,Unknown,70,2013-07-14 13:48:00
8:48 AM,63.0,48.9,60,30.25,-9999.0,East,9.2,-,N/A,,Unknown,100,2013-07-14 14:48:00
9:48 AM,64.0,48.9,58,30.25,-9999.0,ESE,11.5,-,N/A,,Unknown,110,2013-07-14 15:48:00
10:48 AM,66.9,50.0,54,30.25,-9999.0,East,10.4,19.6,N/A,,Unknown,90,2013-07-14 16:48:00
11:48 AM,69.1,51.1,53,30.23,-9999.0,East,16.1,-,N/A,,Unknown,90,2013-07-14 17:48:00
12:48 PM,70.0,50.0,49,30.22,-9999.0,East,13.8,23.0,N/A,,Unknown,90,2013-07-14 18:48:00
1:48 PM,72.0,50.0,46,30.21,-9999.0,East,12.7,23.0,N/A,,Unknown,90,2013-07-14 19:48:00
2:48 PM,75.0,48.9,40,30.18,-9999.0,East,17.3,27.6,N/A,,Unknown,90,2013-07-14 20:48:00
3:48 PM,77.0,51.1,40,30.15,-9999.0,East,16.1,25.3,N/A,,Unknown,90,2013-07-14 21:48:00
4:48 PM,75.9,48.0,37,30.16,-9999.0,SE,12.7,-,N/A,,Unknown,130,2013-07-14 22:48:00
5:48 PM,77.0,48.9,37,30.13,-9999.0,ESE,10.4,-,N/A,,Unknown,110,2013-07-14 23:48:00
6:48 PM,75.9,48.9,38,30.10,-9999.0,ESE,18.4,-,N/A,,Unknown,110,2013-07-15 00:48:00
7:48 PM,75.0,50.0,41,30.08,-9999.0,SE,15.0,18.4,N/A,,Unknown,130,2013-07-15 01:48:00
8:48 PM,71.1,51.1,49,30.09,-9999.0,ESE,9.2,-,N/A,,Unknown,110,2013-07-15 02:48:00
9:48 PM,68.0,53.1,59,30.10,-9999.0,East,10.4,-,N/A,,Unknown,100,2013-07-15 03:48:00
10:48 PM,64.9,52.0,63,30.10,-9999.0,East,10.4,-,N/A,,Unknown,100,2013-07-15 04:48:00
11:48 PM,63.0,52.0,67,30.09,-9999.0,ESE,11.5,-,N/A,,Unknown,110,2013-07-15 05:48:00